| time (UTC) | temp F | wind direction | speed MPH | gust MPH | rain 1hr in | rain 24hr in | rain mn in | humidity % | barometer mb |
| 20260508122521 | 46 | 0 | 0.0 | 0.0 | 0.00 | 0.24 | 0.00 | 90 | 1017.5 |
| 20260508122021 | 45 | 0 | 0.0 | 0.0 | 0.00 | 0.24 | 0.00 | 89 | 1017.4 |
| 20260508121957 | 46 | 90 | 0.0 | 0.0 | 0.00 | 0.21 | 0.00 | 89 | 1019.5 |
| 20260508121558 | 44 | 0 | 0.0 | 0.0 | 0.00 | 0.24 | 0.00 | 90 | 1017.4 |
| 20260508121022 | 43 | 0 | 0.0 | 0.0 | 0.00 | 0.24 | 0.00 | 90 | 1017.4 |
| 20260508120522 | 42 | 0 | 0.0 | 1.0 | 0.00 | 0.24 | 0.00 | 89 | 1017.4 |
| 20260508120041 | 42 | 0 | 0.0 | 1.0 | 0.00 | 0.24 | 0.00 | 89 | 1017.3 |
| 20260508115522 | 41 | 0 | 0.0 | 1.0 | 0.00 | 0.25 | 0.00 | 90 | 1017.2 |
| 20260508115022 | 40 | 0 | 0.0 | 0.0 | 0.00 | 0.25 | 0.00 | 89 | 1017.1 |
| 20260508114539 | 40 | 0 | 0.0 | 0.0 | 0.00 | 0.25 | 0.00 | 90 | 1017.1 |
| 20260508114022 | 40 | 0 | 0.0 | 1.0 | 0.00 | 0.25 | 0.00 | 90 | 1017.1 |
| 20260508113524 | 40 | 0 | 0.0 | 2.0 | 0.00 | 0.25 | 0.00 | 89 | 1017.0 |
| 20260508113512 | 40 | 90 | 0.0 | 0.0 | 0.00 | 0.24 | 0.00 | 89 | 1019.0 |
| 20260508113036 | 40 | 0 | 0.0 | 2.0 | 0.00 | 0.25 | 0.00 | 89 | 1016.9 |
| 20260508112521 | 39 | 126 | 1.0 | 2.0 | 0.00 | 0.25 | 0.00 | 89 | 1017.0 |
| 20260508112441 | 40 | 126 | 0.0 | 1.0 | 0.00 | 0.24 | 0.00 | 89 | 1018.9 |
| 20260508112022 | 39 | 0 | 0.0 | 1.0 | 0.00 | 0.25 | 0.00 | 89 | 1016.9 |
| 20260508111542 | 39 | 0 | 0.0 | 1.0 | 0.00 | 0.25 | 0.00 | 89 | 1016.7 |
| 20260508111501 | 39 | 126 | 0.0 | 0.0 | 0.00 | 0.24 | 0.00 | 89 | 1018.7 |
| 20260508111022 | 39 | 0 | 0.0 | 1.0 | 0.00 | 0.25 | 0.00 | 89 | 1016.5 |
| 20260508110522 | 39 | 0 | 0.0 | 1.0 | 0.00 | 0.25 | 0.00 | 89 | 1016.5 |
| 20260508110455 | 39 | 126 | 0.0 | 0.0 | 0.00 | 0.24 | 0.00 | 89 | 1018.5 |
| 20260508110051 | 39 | 0 | 0.0 | 0.0 | 0.00 | 0.25 | 0.00 | 89 | 1016.5 |
| 20260508105522 | 39 | 0 | 0.0 | 0.0 | 0.00 | 0.25 | 0.00 | 89 | 1016.4 |
| 20260508105422 | 40 | 126 | 0.0 | 0.0 | 0.00 | 0.24 | 0.00 | 89 | 1018.4 |
| 20260508105023 | 39 | 0 | 0.0 | 0.0 | 0.00 | 0.25 | 0.00 | 89 | 1016.4 |
| 20260508104540 | 39 | 0 | 0.0 | 0.0 | 0.00 | 0.25 | 0.00 | 89 | 1016.4 |
| 20260508104022 | 39 | 0 | 0.0 | 0.0 | 0.00 | 0.25 | 0.00 | 89 | 1016.2 |
| 20260508103521 | 40 | 0 | 0.0 | 0.0 | 0.00 | 0.25 | 0.00 | 89 | 1016.1 |
| 20260508103238 | 40 | 126 | 0.0 | 0.0 | 0.00 | 0.24 | 0.00 | 89 | 1018.2 |
| 20260508103040 | 40 | 0 | 0.0 | 0.0 | 0.00 | 0.25 | 0.00 | 89 | 1016.1 |
| 20260508102522 | 40 | 0 | 0.0 | 1.0 | 0.00 | 0.25 | 0.00 | 89 | 1016.0 |
| 20260508102220 | 40 | 126 | 0.0 | 0.0 | 0.00 | 0.24 | 0.00 | 89 | 1018.1 |
| 20260508102022 | 40 | 0 | 0.0 | 1.0 | 0.00 | 0.25 | 0.00 | 89 | 1016.0 |
| 20260508101539 | 40 | 0 | 0.0 | 1.0 | 0.00 | 0.25 | 0.00 | 89 | 1016.0 |
| 20260508101244 | 41 | 126 | 0.0 | 0.0 | 0.00 | 0.24 | 0.00 | 89 | 1017.9 |
| 20260508101025 | 40 | 0 | 0.0 | 2.0 | 0.00 | 0.25 | 0.00 | 89 | 1015.8 |
| 20260508100522 | 40 | 0 | 0.0 | 2.0 | 0.00 | 0.25 | 0.00 | 89 | 1015.9 |
| 20260508100307 | 41 | 126 | 0.0 | 1.0 | 0.00 | 0.24 | 0.00 | 89 | 1017.9 |
| 20260508100044 | 41 | 126 | 0.0 | 2.0 | 0.00 | 0.25 | 0.00 | 89 | 1015.8 |
| 20260508095525 | 41 | 0 | 0.0 | 1.0 | 0.00 | 0.25 | 0.00 | 89 | 1015.7 |
| 20260508095306 | 41 | 126 | 0.0 | 0.0 | 0.00 | 0.24 | 0.00 | 89 | 1017.7 |
| 20260508095022 | 41 | 0 | 0.0 | 1.0 | 0.00 | 0.25 | 0.00 | 89 | 1015.7 |
| 20260508094552 | 41 | 0 | 0.0 | 1.0 | 0.00 | 0.25 | 0.00 | 89 | 1015.5 |
| 20260508094238 | 41 | 126 | 0.0 | 0.0 | 0.00 | 0.24 | 0.00 | 89 | 1017.6 |
| 20260508094021 | 41 | 126 | 0.0 | 1.0 | 0.00 | 0.25 | 0.00 | 89 | 1015.6 |
| 20260508093522 | 41 | 0 | 0.0 | 1.0 | 0.00 | 0.25 | 0.00 | 89 | 1015.6 |
| 20260508093227 | 41 | 126 | 0.0 | 0.0 | 0.00 | 0.24 | 0.00 | 89 | 1017.6 |
| 20260508093042 | 41 | 0 | 0.0 | 2.0 | 0.00 | 0.25 | 0.00 | 89 | 1015.6 |
| 20260508092522 | 41 | 126 | 1.0 | 2.0 | 0.00 | 0.25 | 0.00 | 89 | 1015.4 |
| 20260508092022 | 41 | 0 | 0.0 | 0.0 | 0.00 | 0.25 | 0.00 | 89 | 1015.6 |
| 20260508091540 | 41 | 0 | 0.0 | 1.0 | 0.00 | 0.25 | 0.00 | 89 | 1015.4 |
| 20260508091119 | 42 | 126 | 0.0 | 0.0 | 0.00 | 0.24 | 0.00 | 89 | 1017.5 |
| 20260508091021 | 42 | 0 | 0.0 | 1.0 | 0.00 | 0.25 | 0.00 | 89 | 1015.4 |
| 20260508090523 | 42 | 0 | 0.0 | 1.0 | 0.00 | 0.25 | 0.00 | 89 | 1015.4 |
| 20260508090046 | 42 | 126 | 0.0 | 0.0 | 0.00 | 0.24 | 0.00 | 89 | 1017.3 |
| 20260508090041 | 42 | 0 | 0.0 | 1.0 | 0.00 | 0.25 | 0.00 | 89 | 1015.4 |
| 20260508085526 | 42 | 0 | 0.0 | 1.0 | 0.00 | 0.25 | 0.00 | 89 | 1015.2 |
| 20260508085046 | 42 | 126 | 0.0 | 0.0 | 0.00 | 0.24 | 0.00 | 89 | 1017.1 |
| 20260508085024 | 42 | 0 | 0.0 | 1.0 | 0.00 | 0.25 | 0.00 | 89 | 1015.1 |
| 20260508084536 | 42 | 126 | 0.0 | 1.0 | 0.00 | 0.25 | 0.00 | 89 | 1015.0 |
| 20260508084108 | 42 | 126 | 0.0 | 0.0 | 0.00 | 0.24 | 0.00 | 89 | 1017.0 |
| 20260508084020 | 42 | 0 | 0.0 | 0.0 | 0.00 | 0.25 | 0.00 | 89 | 1015.1 |
| 20260508083523 | 42 | 0 | 0.0 | 0.0 | 0.00 | 0.25 | 0.00 | 89 | 1015.0 |
| 20260508083117 | 42 | 0 | 0.0 | 0.0 | 0.00 | 0.25 | 0.00 | 89 | 1014.9 |
| 20260508083039 | 42 | 126 | 0.0 | 0.0 | 0.00 | 0.24 | 0.00 | 89 | 1016.9 |
| 20260508082523 | 42 | 0 | 0.0 | 0.0 | 0.00 | 0.25 | 0.00 | 89 | 1014.9 |
| 20260508082022 | 42 | 0 | 0.0 | 0.0 | 0.00 | 0.25 | 0.00 | 89 | 1014.8 |
| 20260508082012 | 43 | 126 | 0.0 | 0.0 | 0.00 | 0.24 | 0.00 | 89 | 1016.8 |
| 20260508081551 | 42 | 0 | 0.0 | 1.0 | 0.00 | 0.25 | 0.00 | 89 | 1014.9 |
| 20260508081035 | 43 | 126 | 0.0 | 0.0 | 0.00 | 0.24 | 0.00 | 89 | 1016.8 |
| 20260508081022 | 42 | 0 | 0.0 | 2.0 | 0.00 | 0.25 | 0.00 | 89 | 1014.7 |
| 20260508080522 | 42 | 0 | 0.0 | 2.0 | 0.00 | 0.25 | 0.00 | 89 | 1014.7 |
| 20260508080052 | 42 | 126 | 0.0 | 2.0 | 0.00 | 0.25 | 0.00 | 89 | 1014.7 |
| 20260508075522 | 42 | 126 | 0.0 | 0.0 | 0.00 | 0.28 | 0.00 | 89 | 1014.7 |
| 20260508075021 | 42 | 0 | 0.0 | 0.0 | 0.00 | 0.28 | 0.00 | 89 | 1014.7 |
| 20260508074945 | 43 | 126 | 0.0 | 0.0 | 0.00 | 0.24 | 0.00 | 89 | 1016.7 |
| 20260508074542 | 43 | 0 | 0.0 | 0.0 | 0.00 | 0.28 | 0.00 | 89 | 1014.7 |
| 20260508074021 | 43 | 0 | 0.0 | 0.0 | 0.00 | 0.28 | 0.00 | 89 | 1014.6 |
| 20260508073524 | 43 | 0 | 0.0 | 0.0 | 0.00 | 0.28 | 0.00 | 89 | 1014.6 |
| 20260508073041 | 43 | 0 | 0.0 | 0.0 | 0.00 | 0.28 | 0.00 | 89 | 1014.5 |
| 20260508072521 | 43 | 0 | 0.0 | 0.0 | 0.00 | 0.28 | 0.00 | 89 | 1014.4 |
| 20260508072022 | 43 | 0 | 0.0 | 0.0 | 0.00 | 0.28 | 0.00 | 89 | 1014.4 |
| 20260508071633 | 44 | 126 | 0.0 | 0.0 | 0.00 | 0.26 | 0.00 | 89 | 1016.5 |
| 20260508071539 | 43 | 0 | 0.0 | 0.0 | 0.00 | 0.28 | 0.00 | 89 | 1014.4 |
| 20260508071022 | 43 | 0 | 0.0 | 0.0 | 0.00 | 0.28 | 0.00 | 89 | 1014.4 |
| 20260508070606 | 44 | 126 | 0.0 | 0.0 | 0.00 | 0.26 | 0.00 | 89 | 1016.4 |
| 20260508070524 | 43 | 0 | 0.0 | 0.0 | 0.00 | 0.28 | 0.00 | 89 | 1014.4 |
| 20260508070045 | 43 | 0 | 0.0 | 0.0 | 0.00 | 0.28 | 0.00 | 89 | 1014.4 |
| 20260508065612 | 44 | 126 | 0.0 | 0.0 | 0.00 | 0.28 | 0.00 | 89 | 1016.4 |
| 20260508065525 | 44 | 0 | 0.0 | 0.0 | 0.00 | 0.29 | 0.00 | 89 | 1014.3 |
| 20260508065021 | 44 | 0 | 0.0 | 0.0 | 0.00 | 0.29 | 0.00 | 89 | 1014.3 |
| 20260508064601 | 44 | 0 | 0.0 | 1.0 | 0.00 | 0.29 | 0.00 | 89 | 1014.3 |
| 20260508064550 | 44 | 126 | 0.0 | 0.0 | 0.00 | 0.28 | 0.00 | 89 | 1016.4 |
| 20260508064022 | 44 | 0 | 0.0 | 1.0 | 0.00 | 0.29 | 0.00 | 89 | 1014.2 |
| 20260508063522 | 44 | 0 | 0.0 | 1.0 | 0.00 | 0.29 | 0.00 | 89 | 1014.3 |
| 20260508063046 | 44 | 0 | 0.0 | 0.0 | 0.00 | 0.29 | 0.00 | 88 | 1014.3 |
| 20260508062521 | 44 | 0 | 0.0 | 0.0 | 0.00 | 0.29 | 0.00 | 89 | 1014.4 |
| 20260508062022 | 44 | 0 | 0.0 | 0.0 | 0.00 | 0.29 | 0.00 | 89 | 1014.3 |
| 20260508061543 | 44 | 0 | 0.0 | 0.0 | 0.00 | 0.29 | 0.00 | 88 | 1014.4 |
| 20260508061203 | 45 | 126 | 0.0 | 0.0 | 0.00 | 0.28 | 0.00 | 88 | 1016.4 |
| 20260508061025 | 45 | 0 | 0.0 | 0.0 | 0.00 | 0.29 | 0.00 | 88 | 1014.3 |
| 20260508060522 | 45 | 0 | 0.0 | 1.0 | 0.00 | 0.29 | 0.00 | 88 | 1014.4 |
| 20260508060041 | 45 | 0 | 0.0 | 1.0 | 0.00 | 0.29 | 0.00 | 89 | 1014.4 |
| 20260508055522 | 45 | 0 | 0.0 | 1.0 | 0.00 | 0.30 | 0.00 | 89 | 1014.3 |
| 20260508055052 | 45 | 126 | 0.0 | 0.0 | 0.00 | 0.28 | 0.00 | 89 | 1016.4 |
| 20260508055021 | 45 | 0 | 0.0 | 1.0 | 0.00 | 0.30 | 0.00 | 89 | 1014.3 |
| 20260508054540 | 45 | 0 | 0.0 | 1.0 | 0.00 | 0.30 | 0.00 | 88 | 1014.4 |
| 20260508054040 | 46 | 126 | 0.0 | 0.0 | 0.00 | 0.28 | 0.00 | 88 | 1016.2 |
| 20260508054021 | 45 | 0 | 0.0 | 1.0 | 0.00 | 0.30 | 0.00 | 88 | 1014.3 |
| 20260508053522 | 45 | 0 | 0.0 | 1.0 | 0.00 | 0.30 | 0.00 | 88 | 1014.3 |
| 20260508053103 | 46 | 126 | 0.0 | 0.0 | 0.00 | 0.28 | 0.00 | 89 | 1016.1 |
| 20260508053038 | 45 | 0 | 0.0 | 1.0 | 0.00 | 0.30 | 0.00 | 88 | 1014.2 |
| 20260508052523 | 45 | 0 | 0.0 | 1.0 | 0.00 | 0.30 | 0.00 | 88 | 1014.1 |
| 20260508052036 | 46 | 126 | 0.0 | 0.0 | 0.00 | 0.28 | 0.00 | 88 | 1016.1 |
| 20260508052021 | 46 | 0 | 0.0 | 1.0 | 0.00 | 0.30 | 0.00 | 88 | 1014.1 |
| 20260508051536 | 46 | 0 | 0.0 | 0.0 | 0.00 | 0.30 | 0.00 | 88 | 1014.1 |
| 20260508051022 | 46 | 0 | 0.0 | 0.0 | 0.00 | 0.30 | 0.00 | 88 | 1014.0 |
| 20260508050522 | 46 | 0 | 0.0 | 1.0 | 0.00 | 0.30 | 0.00 | 88 | 1014.0 |
| 20260508050048 | 46 | 0 | 0.0 | 1.0 | 0.00 | 0.30 | 0.00 | 88 | 1014.0 |
| 20260508045940 | 47 | 126 | 0.0 | 0.0 | 0.00 | 0.29 | 0.00 | 88 | 1016.1 |
| 20260508045521 | 46 | 0 | 0.0 | 1.0 | 0.00 | 0.30 | 0.00 | 88 | 1014.0 |
| 20260508045021 | 46 | 0 | 0.0 | 1.0 | 0.00 | 0.30 | 0.00 | 88 | 1014.1 |
| 20260508044953 | 47 | 126 | 0.0 | 0.0 | 0.00 | 0.29 | 0.00 | 88 | 1016.1 |
| 20260508044541 | 47 | 126 | 0.0 | 1.0 | 0.00 | 0.30 | 0.00 | 88 | 1014.0 |
| 20260508044021 | 47 | 0 | 0.0 | 0.0 | 0.00 | 0.30 | 0.00 | 88 | 1014.0 |
| 20260508043932 | 47 | 126 | 0.0 | 0.0 | 0.00 | 0.29 | 0.00 | 88 | 1015.9 |
| 20260508043524 | 47 | 0 | 0.0 | 0.0 | 0.00 | 0.30 | 0.00 | 88 | 1013.9 |
| 20260508043040 | 47 | 0 | 0.0 | 0.0 | 0.00 | 0.30 | 0.00 | 88 | 1013.8 |
| 20260508042521 | 47 | 0 | 0.0 | 1.0 | 0.00 | 0.30 | 0.00 | 88 | 1013.7 |
| 20260508042019 | 47 | 0 | 0.0 | 1.0 | 0.00 | 0.30 | 0.00 | 88 | 1013.6 |
| 20260508041540 | 47 | 0 | 0.0 | 0.0 | 0.00 | 0.30 | 0.00 | 88 | 1013.6 |
| 20260508041019 | 48 | 0 | 0.0 | 0.0 | 0.00 | 0.30 | 0.00 | 88 | 1013.6 |
| 20260508040607 | 48 | 126 | 0.0 | 0.0 | 0.00 | 0.29 | 0.00 | 88 | 1015.7 |
| 20260508040522 | 48 | 0 | 0.0 | 0.0 | 0.00 | 0.30 | 0.00 | 88 | 1013.6 |
| 20260508040037 | 48 | 0 | 0.0 | 0.0 | 0.00 | 0.30 | 0.00 | 88 | 1013.8 |
| 20260508035608 | 49 | 126 | 0.0 | 0.0 | 0.00 | 0.29 | 0.30 | 88 | 1015.8 |
| 20260508035521 | 48 | 0 | 0.0 | 1.0 | 0.00 | 0.33 | 0.30 | 88 | 1013.7 |
| 20260508035019 | 48 | 0 | 0.0 | 1.0 | 0.00 | 0.33 | 0.30 | 88 | 1013.6 |
| 20260508034541 | 49 | 0 | 0.0 | 1.0 | 0.00 | 0.33 | 0.30 | 88 | 1013.6 |
| 20260508034538 | 49 | 126 | 0.0 | 0.0 | 0.00 | 0.29 | 0.30 | 88 | 1015.6 |
| 20260508034021 | 49 | 0 | 0.0 | 1.0 | 0.00 | 0.33 | 0.30 | 88 | 1013.5 |
| 20260508033520 | 49 | 0 | 0.0 | 1.0 | 0.00 | 0.33 | 0.30 | 88 | 1013.5 |
| 20260508033517 | 49 | 126 | 0.0 | 0.0 | 0.00 | 0.29 | 0.30 | 88 | 1015.5 |
| 20260508033042 | 49 | 0 | 0.0 | 0.0 | 0.00 | 0.33 | 0.30 | 88 | 1013.5 |
| 20260508032521 | 49 | 0 | 0.0 | 1.0 | 0.00 | 0.33 | 0.30 | 88 | 1013.6 |
| 20260508032448 | 50 | 126 | 0.0 | 0.0 | 0.00 | 0.29 | 0.30 | 88 | 1015.6 |
| 20260508032021 | 49 | 0 | 0.0 | 1.0 | 0.00 | 0.33 | 0.30 | 88 | 1013.5 |
| 20260508031541 | 50 | 0 | 0.0 | 1.0 | 0.00 | 0.33 | 0.30 | 88 | 1013.4 |
| 20260508031423 | 50 | 126 | 0.0 | 0.0 | 0.00 | 0.31 | 0.30 | 88 | 1015.5 |
| 20260508031021 | 50 | 0 | 0.0 | 1.0 | 0.00 | 0.33 | 0.30 | 88 | 1013.2 |
| 20260508030521 | 50 | 0 | 0.0 | 1.0 | 0.00 | 0.33 | 0.30 | 88 | 1013.3 |
| 20260508030412 | 51 | 126 | 0.0 | 0.0 | 0.00 | 0.32 | 0.30 | 88 | 1015.3 |
| 20260508030043 | 50 | 0 | 0.0 | 0.0 | 0.00 | 0.33 | 0.30 | 88 | 1013.3 |
| 20260508025521 | 50 | 0 | 0.0 | 0.0 | 0.00 | 0.34 | 0.30 | 88 | 1013.2 |
| 20260508025358 | 51 | 126 | 0.0 | 0.0 | 0.00 | 0.32 | 0.30 | 88 | 1015.2 |
| 20260508025025 | 51 | 0 | 0.0 | 0.0 | 0.00 | 0.34 | 0.30 | 88 | 1013.1 |
| 20260508024541 | 51 | 0 | 0.0 | 2.0 | 0.00 | 0.34 | 0.30 | 88 | 1013.2 |
| 20260508024021 | 51 | 0 | 0.0 | 2.0 | 0.00 | 0.34 | 0.30 | 88 | 1013.2 |
| 20260508023521 | 51 | 126 | 1.0 | 2.0 | 0.00 | 0.34 | 0.30 | 88 | 1013.0 |
| 20260508023317 | 52 | 126 | 0.0 | 0.0 | 0.00 | 0.33 | 0.30 | 88 | 1015.0 |
| 20260508023040 | 51 | 0 | 0.0 | 1.0 | 0.00 | 0.34 | 0.30 | 88 | 1012.9 |
| 20260508022521 | 52 | 0 | 0.0 | 1.0 | 0.00 | 0.34 | 0.30 | 88 | 1012.8 |
| 20260508022307 | 52 | 126 | 0.0 | 0.0 | 0.00 | 0.33 | 0.30 | 88 | 1014.8 |
| 20260508022022 | 52 | 0 | 0.0 | 1.0 | 0.00 | 0.34 | 0.30 | 88 | 1012.7 |
| 20260508021540 | 52 | 0 | 0.0 | 1.0 | 0.00 | 0.34 | 0.30 | 88 | 1012.7 |
| 20260508021020 | 52 | 0 | 0.0 | 2.0 | 0.00 | 0.34 | 0.30 | 88 | 1012.7 |
| 20260508020521 | 52 | 126 | 0.0 | 2.0 | 0.00 | 0.34 | 0.30 | 88 | 1012.5 |
| 20260508020152 | 53 | 126 | 0.0 | 0.0 | 0.00 | 0.33 | 0.30 | 88 | 1014.5 |
| 20260508020046 | 53 | 0 | 0.0 | 2.0 | 0.00 | 0.34 | 0.30 | 88 | 1012.5 |
| 20260508015521 | 53 | 0 | 0.0 | 2.0 | 0.00 | 0.36 | 0.30 | 88 | 1012.3 |
| 20260508015126 | 53 | 126 | 0.0 | 1.0 | 0.00 | 0.34 | 0.30 | 88 | 1014.3 |
| 20260508015021 | 53 | 168 | 0.0 | 2.0 | 0.00 | 0.36 | 0.30 | 88 | 1012.2 |
| 20260508014541 | 53 | 168 | 0.0 | 2.0 | 0.00 | 0.36 | 0.30 | 88 | 1012.2 |
| 20260508014120 | 54 | 220 | 0.0 | 1.0 | 0.00 | 0.34 | 0.30 | 88 | 1014.1 |
| 20260508014022 | 53 | 220 | 0.0 | 2.0 | 0.00 | 0.36 | 0.30 | 88 | 1012.0 |
| 20260508013521 | 54 | 0 | 0.0 | 3.0 | 0.00 | 0.36 | 0.30 | 88 | 1011.9 |
| 20260508013106 | 54 | 154 | 0.0 | 2.0 | 0.00 | 0.34 | 0.30 | 88 | 1013.9 |
| 20260508013039 | 54 | 154 | 0.0 | 3.0 | 0.00 | 0.36 | 0.30 | 88 | 1011.9 |
| 20260508012521 | 54 | 151 | 1.0 | 3.0 | 0.00 | 0.36 | 0.30 | 88 | 1011.8 |
| 20260508012112 | 55 | 136 | 0.0 | 1.0 | 0.00 | 0.34 | 0.30 | 88 | 1013.9 |
| 20260508012024 | 54 | 122 | 0.0 | 2.0 | 0.00 | 0.36 | 0.30 | 88 | 1011.7 |
| 20260508011548 | 55 | 0 | 0.0 | 2.0 | 0.00 | 0.36 | 0.30 | 88 | 1011.8 |
| 20260508011111 | 55 | 122 | 0.0 | 0.0 | 0.00 | 0.34 | 0.30 | 88 | 1013.7 |
| 20260508011021 | 55 | 0 | 0.0 | 2.0 | 0.00 | 0.36 | 0.30 | 88 | 1011.7 |
| 20260508010521 | 55 | 0 | 0.0 | 2.0 | 0.00 | 0.36 | 0.30 | 88 | 1011.8 |
| 20260508010136 | 56 | 122 | 0.0 | 0.0 | 0.00 | 0.35 | 0.30 | 88 | 1013.7 |
| 20260508010055 | 55 | 0 | 0.0 | 2.0 | 0.00 | 0.36 | 0.30 | 88 | 1011.6 |
| 20260508005532 | 55 | 122 | 0.0 | 2.0 | 0.00 | 0.37 | 0.30 | 88 | 1011.6 |
| 20260508005126 | 56 | 122 | 0.0 | 0.0 | 0.00 | 0.35 | 0.30 | 88 | 1013.7 |
| 20260508005021 | 56 | 0 | 0.0 | 1.0 | 0.00 | 0.37 | 0.30 | 88 | 1011.6 |
| 20260508004554 | 56 | 122 | 0.0 | 1.0 | 0.00 | 0.37 | 0.30 | 88 | 1011.5 |
| 20260508004108 | 56 | 122 | 0.0 | 0.0 | 0.00 | 0.36 | 0.30 | 88 | 1013.5 |
| 20260508004021 | 56 | 0 | 0.0 | 1.0 | 0.00 | 0.37 | 0.30 | 88 | 1011.4 |
| 20260508003521 | 56 | 0 | 0.0 | 1.0 | 0.00 | 0.37 | 0.30 | 88 | 1011.5 |
| 20260508003110 | 57 | 122 | 0.0 | 0.0 | 0.00 | 0.36 | 0.30 | 88 | 1013.5 |
| 20260508003043 | 56 | 0 | 0.0 | 1.0 | 0.00 | 0.37 | 0.30 | 88 | 1011.5 |
| 20260508002522 | 56 | 0 | 0.0 | 1.0 | 0.00 | 0.37 | 0.30 | 88 | 1011.6 |
| 20260508002117 | 57 | 122 | 0.0 | 0.0 | 0.00 | 0.36 | 0.30 | 88 | 1013.6 |
| 20260508002021 | 56 | 0 | 0.0 | 2.0 | 0.00 | 0.37 | 0.30 | 88 | 1011.6 |
| 20260508001543 | 56 | 0 | 0.0 | 2.0 | 0.00 | 0.37 | 0.30 | 88 | 1011.6 |
| 20260508001107 | 57 | 122 | 0.0 | 1.0 | 0.00 | 0.36 | 0.30 | 88 | 1013.7 |
| 20260508001021 | 56 | 122 | 0.0 | 2.0 | 0.00 | 0.37 | 0.30 | 88 | 1011.5 |
| 20260508000525 | 56 | 0 | 0.0 | 0.0 | 0.00 | 0.37 | 0.30 | 88 | 1011.5 |
| 20260508000128 | 57 | 23 | 0.0 | 0.0 | 0.00 | 0.36 | 0.30 | 88 | 1013.6 |
| 20260508000038 | 56 | 0 | 0.0 | 1.0 | 0.00 | 0.37 | 0.30 | 88 | 1011.5 |
| 20260507235521 | 56 | 0 | 0.0 | 1.0 | 0.00 | 0.37 | 0.30 | 88 | 1011.4 |
| 20260507235106 | 57 | 23 | 0.0 | 0.0 | 0.00 | 0.36 | 0.30 | 88 | 1013.5 |
| 20260507235024 | 56 | 0 | 0.0 | 1.0 | 0.00 | 0.37 | 0.30 | 88 | 1011.4 |
| 20260507234542 | 56 | 0 | 0.0 | 1.0 | 0.00 | 0.37 | 0.30 | 88 | 1011.3 |
| 20260507234101 | 57 | 23 | 0.0 | 0.0 | 0.00 | 0.36 | 0.30 | 87 | 1013.3 |
| 20260507234020 | 57 | 0 | 0.0 | 2.0 | 0.00 | 0.37 | 0.30 | 87 | 1011.4 |
| 20260507233521 | 57 | 0 | 0.0 | 2.0 | 0.00 | 0.37 | 0.30 | 88 | 1011.2 |
| 20260507233118 | 57 | 98 | 0.0 | 0.0 | 0.00 | 0.36 | 0.30 | 88 | 1013.2 |
| 20260507233042 | 57 | 98 | 0.0 | 2.0 | 0.00 | 0.37 | 0.30 | 88 | 1011.0 |
| 20260507232520 | 57 | 98 | 0.0 | 2.0 | 0.00 | 0.37 | 0.30 | 88 | 1011.0 |
| 20260507232123 | 58 | 276 | 0.0 | 0.0 | 0.00 | 0.36 | 0.30 | 88 | 1013.0 |
| 20260507232020 | 57 | 0 | 0.0 | 2.0 | 0.00 | 0.37 | 0.30 | 88 | 1011.0 |
| 20260507231541 | 57 | 276 | 0.0 | 4.0 | 0.00 | 0.37 | 0.30 | 88 | 1010.8 |
| 20260507231021 | 57 | 0 | 0.0 | 4.0 | 0.00 | 0.37 | 0.30 | 88 | 1010.5 |
| 20260507230525 | 57 | 40 | 0.0 | 1.0 | 0.00 | 0.37 | 0.30 | 88 | 1010.5 |
| 20260507230040 | 56 | 0 | 0.0 | 3.0 | 0.00 | 0.37 | 0.30 | 88 | 1010.5 |
| 20260507230034 | 57 | 297 | 0.0 | 0.0 | 0.00 | 0.36 | 0.30 | 88 | 1012.5 |
| 20260507225521 | 56 | 0 | 0.0 | 3.0 | 0.00 | 0.37 | 0.30 | 88 | 1010.3 |
| 20260507225052 | 57 | 63 | 1.0 | 2.0 | 0.00 | 0.36 | 0.30 | 88 | 1012.4 |
| 20260507225022 | 57 | 5 | 1.0 | 4.0 | 0.00 | 0.37 | 0.30 | 88 | 1010.3 |
| 20260507224539 | 57 | 351 | 1.0 | 4.0 | 0.00 | 0.37 | 0.30 | 88 | 1010.3 |
| 20260507224109 | 57 | 3 | 0.0 | 2.0 | 0.00 | 0.36 | 0.30 | 88 | 1012.4 |
| 20260507224021 | 57 | 3 | 1.0 | 3.0 | 0.00 | 0.37 | 0.30 | 88 | 1010.4 |
| 20260507223523 | 57 | 0 | 1.0 | 3.0 | 0.00 | 0.37 | 0.30 | 88 | 1010.3 |
| 20260507223131 | 57 | 301 | 1.0 | 5.0 | 0.00 | 0.36 | 0.30 | 88 | 1012.4 |
| 20260507223042 | 57 | 325 | 0.0 | 6.0 | 0.00 | 0.37 | 0.30 | 88 | 1010.4 |
| 20260507222521 | 57 | 93 | 2.0 | 6.0 | 0.00 | 0.37 | 0.30 | 88 | 1010.3 |
| 20260507222020 | 57 | 317 | 2.0 | 6.0 | 0.00 | 0.37 | 0.30 | 88 | 1010.2 |
| 20260507221542 | 57 | 51 | 1.0 | 5.0 | 0.00 | 0.37 | 0.30 | 88 | 1010.1 |
| 20260507221021 | 57 | 322 | 2.0 | 5.0 | 0.00 | 0.37 | 0.30 | 88 | 1010.2 |
| 20260507221009 | 58 | 16 | 1.0 | 6.0 | 0.00 | 0.36 | 0.30 | 88 | 1012.2 |
| 20260507220521 | 57 | 264 | 1.0 | 6.0 | 0.00 | 0.37 | 0.30 | 88 | 1010.2 |
| 20260507220041 | 57 | 36 | 1.0 | 7.0 | 0.00 | 0.37 | 0.30 | 88 | 1010.0 |
| 20260507215953 | 57 | 72 | 1.0 | 6.0 | 0.00 | 0.36 | 0.30 | 88 | 1012.0 |
| 20260507215523 | 57 | 332 | 2.0 | 7.0 | 0.00 | 0.37 | 0.30 | 88 | 1010.0 |
| 20260507215020 | 57 | 125 | 2.0 | 4.0 | 0.00 | 0.37 | 0.30 | 88 | 1009.9 |
| 20260507214947 | 57 | 19 | 1.0 | 3.0 | 0.00 | 0.36 | 0.30 | 88 | 1011.9 |
| 20260507214540 | 57 | 85 | 2.0 | 6.0 | 0.00 | 0.37 | 0.30 | 88 | 1010.0 |
| 20260507214021 | 57 | 72 | 2.0 | 6.0 | 0.00 | 0.37 | 0.30 | 88 | 1010.0 |
| 20260507213952 | 57 | 80 | 1.0 | 6.0 | 0.00 | 0.36 | 0.30 | 88 | 1012.0 |
| 20260507213523 | 57 | 0 | 1.0 | 5.0 | 0.00 | 0.37 | 0.30 | 88 | 1010.0 |
| 20260507213037 | 57 | 166 | 1.0 | 7.0 | 0.00 | 0.37 | 0.30 | 88 | 1009.9 |
| 20260507212935 | 57 | 85 | 1.0 | 6.0 | 0.00 | 0.36 | 0.30 | 88 | 1011.9 |
| 20260507212521 | 57 | 1 | 1.0 | 7.0 | 0.00 | 0.37 | 0.30 | 88 | 1009.8 |
| 20260507212023 | 57 | 328 | 1.0 | 4.0 | 0.00 | 0.37 | 0.30 | 88 | 1009.8 |
| 20260507211535 | 57 | 351 | 2.0 | 9.0 | 0.01 | 0.37 | 0.30 | 88 | 1009.6 |
| 20260507211020 | 57 | 343 | 2.0 | 9.0 | 0.03 | 0.37 | 0.30 | 88 | 1009.6 |
| 20260507210845 | 57 | 347 | 2.0 | 9.0 | 0.00 | 0.36 | 0.30 | 88 | 1011.6 |
| 20260507210523 | 57 | 51 | 2.0 | 10.0 | 0.06 | 0.37 | 0.30 | 88 | 1009.7 |
| 20260507210052 | 57 | 89 | 2.0 | 10.0 | 0.07 | 0.37 | 0.30 | 88 | 1009.9 |
| 20260507205853 | 57 | 155 | 2.0 | 9.0 | 0.00 | 0.36 | 0.30 | 88 | 1011.9 |
| 20260507205521 | 57 | 18 | 1.0 | 9.0 | 0.07 | 0.37 | 0.30 | 88 | 1009.9 |
| 20260507205018 | 57 | 14 | 2.0 | 6.0 | 0.07 | 0.37 | 0.30 | 88 | 1010.0 |
| 20260507204818 | 57 | 33 | 1.0 | 4.0 | 0.00 | 0.36 | 0.30 | 88 | 1012.0 |
| 20260507204555 | 56 | 35 | 2.0 | 6.0 | 0.07 | 0.37 | 0.30 | 89 | 1009.9 |
| 20260507204018 | 56 | 50 | 1.0 | 7.0 | 0.08 | 0.37 | 0.30 | 89 | 1009.9 |
| 20260507203519 | 56 | 170 | 2.0 | 7.0 | 0.08 | 0.37 | 0.30 | 88 | 1009.8 |
| 20260507203041 | 57 | 68 | 2.0 | 6.0 | 0.08 | 0.37 | 0.30 | 88 | 1009.7 |
| 20260507202659 | 57 | 137 | 1.0 | 5.0 | 0.08 | 0.36 | 0.30 | 88 | 1011.8 |
| 20260507202518 | 57 | 106 | 1.0 | 4.0 | 0.09 | 0.37 | 0.30 | 88 | 1009.8 |
| 20260507202021 | 56 | 360 | 1.0 | 6.0 | 0.11 | 0.37 | 0.30 | 89 | 1009.5 |
| 20260507201630 | 57 | 125 | 1.0 | 5.0 | 0.27 | 0.34 | 0.28 | 88 | 1011.7 |
| 20260507201543 | 56 | 131 | 1.0 | 6.0 | 0.10 | 0.36 | 0.29 | 88 | 1009.8 |
| 20260507201018 | 56 | 12 | 1.0 | 4.0 | 0.07 | 0.33 | 0.26 | 88 | 1010.1 |
| 20260507200626 | 57 | 232 | 1.0 | 3.0 | 0.01 | 0.31 | 0.24 | 88 | 1012.3 |
| 20260507200522 | 56 | 96 | 1.0 | 4.0 | 0.05 | 0.31 | 0.24 | 88 | 1010.3 |
| 20260507200040 | 56 | 156 | 2.0 | 6.0 | 0.04 | 0.30 | 0.23 | 88 | 1010.2 |
| 20260507195622 | 57 | 307 | 1.0 | 5.0 | 0.01 | 0.30 | 0.23 | 88 | 1012.0 |
| 20260507195519 | 57 | 62 | 1.0 | 6.0 | 0.04 | 0.30 | 0.23 | 88 | 1009.9 |
| 20260507195021 | 57 | 133 | 1.0 | 6.0 | 0.04 | 0.30 | 0.23 | 88 | 1009.9 |
| 20260507194626 | 57 | 344 | 1.0 | 5.0 | 0.01 | 0.28 | 0.23 | 88 | 1012.1 |
| 20260507194543 | 57 | 263 | 0.0 | 5.0 | 0.04 | 0.30 | 0.23 | 88 | 1009.8 |
| 20260507194018 | 57 | 324 | 1.0 | 7.0 | 0.03 | 0.29 | 0.22 | 87 | 1009.8 |
| 20260507193608 | 58 | 95 | 1.0 | 5.0 | 0.06 | 0.28 | 0.21 | 87 | 1012.0 |
| 20260507193521 | 57 | 141 | 1.0 | 7.0 | 0.03 | 0.29 | 0.22 | 87 | 1010.1 |
| 20260507193043 | 57 | 330 | 2.0 | 5.0 | 0.03 | 0.29 | 0.22 | 87 | 1009.8 |
| 20260507192632 | 58 | 10 | 1.0 | 8.0 | 0.32 | 0.26 | 0.21 | 87 | 1012.2 |
| 20260507192518 | 58 | 16 | 2.0 | 7.0 | 0.01 | 0.27 | 0.20 | 87 | 1010.1 |
| 20260507192021 | 58 | 10 | 1.0 | 7.0 | 0.00 | 0.26 | 0.19 | 87 | 1009.7 |
| 20260507191627 | 58 | 70 | 2.0 | 8.0 | 0.00 | 0.26 | 0.19 | 87 | 1011.3 |
| 20260507191541 | 58 | 52 | 2.0 | 9.0 | 0.00 | 0.26 | 0.19 | 87 | 1009.4 |
| 20260507191018 | 58 | 3 | 2.0 | 9.0 | 0.00 | 0.26 | 0.19 | 87 | 1009.6 |
| 20260507190619 | 59 | 347 | 2.0 | 8.0 | 0.00 | 0.26 | 0.19 | 87 | 1011.5 |
| 20260507190603 | 58 | 0 | 3.0 | 9.0 | 0.00 | 0.26 | 0.19 | 87 | 1009.5 |
| 20260507190043 | 58 | 326 | 1.0 | 9.0 | 0.00 | 0.26 | 0.19 | 87 | 1009.9 |
| 20260507185554 | 59 | 68 | 2.0 | 8.0 | 0.00 | 0.26 | 0.19 | 87 | 1011.9 |
| 20260507185518 | 58 | 48 | 3.0 | 9.0 | 0.00 | 0.26 | 0.19 | 87 | 1009.9 |
| 20260507185024 | 59 | 49 | 2.0 | 9.0 | 0.00 | 0.26 | 0.19 | 87 | 1009.9 |
| 20260507184540 | 59 | 247 | 4.0 | 9.0 | 0.00 | 0.26 | 0.19 | 86 | 1009.6 |
| 20260507184536 | 60 | 80 | 3.0 | 10.0 | 0.00 | 0.26 | 0.19 | 86 | 1011.7 |
| 20260507184019 | 59 | 300 | 2.0 | 11.0 | 0.00 | 0.26 | 0.19 | 86 | 1009.7 |
| 20260507183521 | 60 | 85 | 5.0 | 13.0 | 0.00 | 0.26 | 0.19 | 86 | 1009.8 |
| 20260507183517 | 60 | 66 | 4.0 | 11.0 | 0.00 | 0.26 | 0.19 | 86 | 1011.9 |
| 20260507183041 | 60 | 10 | 5.0 | 13.0 | 0.00 | 0.26 | 0.19 | 85 | 1009.9 |
| 20260507182524 | 62 | 61 | 3.0 | 11.0 | 0.00 | 0.26 | 0.19 | 86 | 1011.8 |
| 20260507182521 | 61 | 61 | 7.0 | 12.0 | 0.00 | 0.26 | 0.19 | 86 | 1009.8 |
| 20260507182018 | 62 | 141 | 2.0 | 5.0 | 0.00 | 0.26 | 0.19 | 86 | 1009.5 |
| 20260507181535 | 62 | 355 | 1.0 | 7.0 | 0.00 | 0.26 | 0.19 | 86 | 1009.5 |
| 20260507181516 | 62 | 351 | 1.0 | 7.0 | 0.00 | 0.26 | 0.19 | 86 | 1011.6 |
| 20260507181019 | 62 | 0 | 1.0 | 8.0 | 0.00 | 0.26 | 0.19 | 86 | 1009.6 |
| 20260507180528 | 62 | 315 | 2.0 | 7.0 | 0.00 | 0.26 | 0.19 | 86 | 1011.6 |
| 20260507180521 | 62 | 343 | 2.0 | 8.0 | 0.00 | 0.26 | 0.19 | 86 | 1009.5 |
| 20260507180050 | 62 | 29 | 2.0 | 8.0 | 0.00 | 0.26 | 0.19 | 85 | 1009.5 |
| 20260507175535 | 62 | 270 | 1.0 | 8.0 | 0.00 | 0.26 | 0.19 | 85 | 1011.6 |
| 20260507175519 | 62 | 249 | 2.0 | 9.0 | 0.00 | 0.26 | 0.19 | 85 | 1009.6 |
| 20260507175021 | 62 | 357 | 1.0 | 11.0 | 0.00 | 0.26 | 0.19 | 85 | 1009.7 |
| 20260507174541 | 62 | 320 | 1.0 | 11.0 | 0.00 | 0.26 | 0.19 | 85 | 1009.4 |
| 20260507174022 | 62 | 110 | 4.0 | 11.0 | 0.00 | 0.26 | 0.19 | 86 | 1009.6 |
| 20260507173521 | 62 | 11 | 3.0 | 9.0 | 0.00 | 0.26 | 0.19 | 87 | 1009.5 |
| 20260507173510 | 63 | 54 | 2.0 | 10.0 | 0.00 | 0.26 | 0.19 | 87 | 1011.7 |
| 20260507173040 | 61 | 162 | 2.0 | 7.0 | 0.00 | 0.26 | 0.19 | 87 | 1009.8 |
| 20260507172521 | 61 | 58 | 3.0 | 7.0 | 0.00 | 0.26 | 0.19 | 87 | 1009.9 |
| 20260507172018 | 61 | 7 | 2.0 | 6.0 | 0.00 | 0.26 | 0.19 | 87 | 1010.1 |
| 20260507171542 | 61 | 7 | 2.0 | 6.0 | 0.00 | 0.26 | 0.19 | 87 | 1010.1 |
| 20260507171336 | 62 | 10 | 1.0 | 5.0 | 0.00 | 0.26 | 0.19 | 87 | 1012.1 |
| 20260507171020 | 62 | 18 | 2.0 | 6.0 | 0.00 | 0.26 | 0.19 | 87 | 1010.1 |
| 20260507170519 | 62 | 37 | 2.0 | 6.0 | 0.00 | 0.26 | 0.19 | 87 | 1010.0 |
| 20260507170356 | 63 | 75 | 1.0 | 5.0 | 0.00 | 0.26 | 0.19 | 87 | 1011.9 |
| 20260507170036 | 62 | 0 | 1.0 | 4.0 | 0.00 | 0.26 | 0.19 | 88 | 1010.0 |
| 20260507165519 | 63 | 55 | 1.0 | 8.0 | 0.00 | 0.26 | 0.19 | 88 | 1009.9 |
| 20260507165404 | 63 | 346 | 1.0 | 5.0 | 0.00 | 0.26 | 0.19 | 88 | 1012.0 |
| 20260507165023 | 63 | 283 | 1.0 | 8.0 | 0.00 | 0.26 | 0.19 | 88 | 1009.7 |
| 20260507164537 | 62 | 214 | 2.0 | 5.0 | 0.00 | 0.26 | 0.19 | 88 | 1009.4 |
| 20260507164400 | 63 | 60 | 1.0 | 4.0 | 0.00 | 0.26 | 0.19 | 88 | 1011.5 |
| 20260507164022 | 62 | 85 | 1.0 | 4.0 | 0.00 | 0.26 | 0.19 | 88 | 1009.5 |
| 20260507163521 | 62 | 25 | 1.0 | 5.0 | 0.00 | 0.26 | 0.19 | 88 | 1009.4 |
| 20260507163421 | 63 | 85 | 1.0 | 3.0 | 0.00 | 0.26 | 0.19 | 88 | 1011.5 |
| 20260507163044 | 62 | 171 | 1.0 | 8.0 | 0.00 | 0.26 | 0.19 | 89 | 1009.4 |
| 20260507162521 | 62 | 18 | 1.0 | 9.0 | 0.00 | 0.26 | 0.19 | 89 | 1009.4 |
| 20260507162416 | 62 | 307 | 2.0 | 10.0 | 0.00 | 0.26 | 0.19 | 89 | 1011.4 |
| 20260507162020 | 61 | 31 | 2.0 | 11.0 | 0.00 | 0.26 | 0.19 | 89 | 1009.3 |
| 20260507161542 | 61 | 347 | 3.0 | 11.0 | 0.00 | 0.26 | 0.19 | 89 | 1009.6 |
| 20260507161412 | 62 | 25 | 1.0 | 10.0 | 0.00 | 0.26 | 0.19 | 89 | 1011.6 |
| 20260507161020 | 61 | 283 | 1.0 | 6.0 | 0.00 | 0.26 | 0.19 | 89 | 1009.5 |
| 20260507160519 | 61 | 111 | 1.0 | 9.0 | 0.00 | 0.26 | 0.19 | 89 | 1009.6 |
| 20260507160355 | 61 | 30 | 2.0 | 10.0 | 0.00 | 0.26 | 0.19 | 89 | 1011.8 |
| 20260507160040 | 61 | 1 | 3.0 | 9.0 | 0.00 | 0.26 | 0.19 | 89 | 1009.5 |
| 20260507155522 | 61 | 52 | 2.0 | 11.0 | 0.00 | 0.26 | 0.19 | 89 | 1009.7 |
| 20260507155359 | 61 | 6 | 3.0 | 10.0 | 0.00 | 0.26 | 0.19 | 89 | 1011.7 |
| 20260507155022 | 61 | 66 | 4.0 | 11.0 | 0.00 | 0.26 | 0.19 | 89 | 1009.8 |
| 20260507154541 | 61 | 70 | 4.0 | 13.0 | 0.00 | 0.26 | 0.19 | 89 | 1009.8 |
| 20260507154406 | 62 | 15 | 3.0 | 9.0 | 0.00 | 0.26 | 0.19 | 89 | 1011.9 |
| 20260507154021 | 62 | 65 | 1.0 | 13.0 | 0.00 | 0.26 | 0.19 | 89 | 1009.8 |
| 20260507153521 | 64 | 80 | 2.0 | 5.0 | 0.00 | 0.26 | 0.19 | 89 | 1009.8 |
| 20260507153409 | 64 | 4 | 0.0 | 3.0 | 0.00 | 0.26 | 0.19 | 89 | 1011.9 |
| 20260507153046 | 64 | 102 | 0.0 | 2.0 | 0.00 | 0.26 | 0.19 | 89 | 1010.0 |
| 20260507152523 | 64 | 311 | 0.0 | 4.0 | 0.00 | 0.26 | 0.19 | 89 | 1010.0 |
| 20260507152404 | 65 | 311 | 0.0 | 0.0 | 0.00 | 0.26 | 0.19 | 89 | 1012.1 |
| 20260507152023 | 65 | 311 | 0.0 | 4.0 | 0.00 | 0.26 | 0.19 | 89 | 1010.1 |
| 20260507151543 | 65 | 254 | 0.0 | 3.0 | 0.00 | 0.26 | 0.19 | 89 | 1010.0 |
| 20260507151410 | 65 | 60 | 0.0 | 2.0 | 0.00 | 0.26 | 0.19 | 89 | 1012.0 |
| 20260507151023 | 64 | 59 | 1.0 | 3.0 | 0.00 | 0.26 | 0.19 | 89 | 1009.8 |
| 20260507150526 | 64 | 60 | 0.0 | 2.0 | 0.00 | 0.26 | 0.19 | 89 | 1009.9 |
| 20260507150357 | 65 | 39 | 0.0 | 1.0 | 0.00 | 0.26 | 0.19 | 89 | 1012.0 |
| 20260507150043 | 64 | 0 | 0.0 | 2.0 | 0.00 | 0.26 | 0.19 | 89 | 1010.0 |
| 20260507145527 | 64 | 0 | 0.0 | 2.0 | 0.00 | 0.26 | 0.19 | 89 | 1010.2 |
| 20260507145400 | 65 | 359 | 0.0 | 0.0 | 0.00 | 0.26 | 0.19 | 89 | 1012.1 |
| 20260507145022 | 64 | 359 | 0.0 | 2.0 | 0.00 | 0.26 | 0.19 | 89 | 1010.1 |
| 20260507144546 | 64 | 20 | 0.0 | 2.0 | 0.00 | 0.26 | 0.19 | 89 | 1009.5 |
| 20260507144420 | 65 | 20 | 0.0 | 0.0 | 0.00 | 0.26 | 0.19 | 89 | 1011.5 |
| 20260507144022 | 64 | 20 | 1.0 | 2.0 | 0.00 | 0.26 | 0.19 | 89 | 1009.4 |
| 20260507143525 | 64 | 331 | 0.0 | 2.0 | 0.00 | 0.26 | 0.19 | 89 | 1009.4 |
| 20260507143400 | 64 | 331 | 0.0 | 1.0 | 0.00 | 0.26 | 0.19 | 89 | 1011.4 |
| 20260507143042 | 64 | 322 | 0.0 | 2.0 | 0.01 | 0.26 | 0.19 | 89 | 1009.4 |
| 20260507142522 | 64 | 178 | 0.0 | 2.0 | 0.01 | 0.26 | 0.19 | 89 | 1009.4 |
| 20260507142356 | 64 | 178 | 0.0 | 0.0 | 0.00 | 0.26 | 0.19 | 89 | 1011.5 |
| 20260507142021 | 64 | 0 | 1.0 | 2.0 | 0.01 | 0.26 | 0.19 | 89 | 1009.5 |
| 20260507141539 | 64 | 0 | 0.0 | 3.0 | 0.01 | 0.26 | 0.19 | 89 | 1009.7 |
| 20260507141023 | 63 | 123 | 0.0 | 3.0 | 0.02 | 0.26 | 0.19 | 89 | 1009.4 |
| 20260507140522 | 63 | 114 | 0.0 | 3.0 | 0.03 | 0.26 | 0.19 | 89 | 1009.3 |
| 20260507140257 | 64 | 181 | 0.0 | 1.0 | 0.00 | 0.26 | 0.19 | 89 | 1011.4 |
| 20260507140048 | 63 | 181 | 0.0 | 2.0 | 0.03 | 0.26 | 0.19 | 89 | 1009.6 |
| 20260507135522 | 63 | 127 | 0.0 | 1.0 | 0.03 | 0.26 | 0.19 | 89 | 1009.6 |
| 20260507135223 | 64 | 127 | 0.0 | 0.0 | 0.00 | 0.26 | 0.19 | 89 | 1011.5 |
| 20260507135022 | 63 | 0 | 0.0 | 0.0 | 0.04 | 0.26 | 0.19 | 89 | 1009.5 |
| 20260507134544 | 63 | 0 | 0.0 | 1.0 | 0.05 | 0.26 | 0.19 | 89 | 1009.5 |
| 20260507134159 | 64 | 127 | 0.0 | 0.0 | 0.01 | 0.26 | 0.19 | 89 | 1011.5 |
| 20260507134023 | 63 | 0 | 0.0 | 2.0 | 0.06 | 0.26 | 0.19 | 89 | 1009.5 |
| 20260507133522 | 63 | 0 | 0.0 | 2.0 | 0.08 | 0.26 | 0.19 | 89 | 1009.3 |
| 20260507133144 | 64 | 127 | 0.0 | 1.0 | 0.04 | 0.25 | 0.18 | 89 | 1011.2 |
| 20260507133041 | 63 | 0 | 0.0 | 2.0 | 0.09 | 0.25 | 0.18 | 89 | 1009.2 |
| 20260507132526 | 63 | 0 | 0.0 | 4.0 | 0.10 | 0.25 | 0.18 | 89 | 1009.4 |
| 20260507132147 | 63 | 127 | 1.0 | 2.0 | 0.09 | 0.25 | 0.18 | 89 | 1011.4 |
| 20260507132021 | 63 | 0 | 0.0 | 4.0 | 0.10 | 0.25 | 0.18 | 89 | 1009.4 |
| 20260507131540 | 63 | 98 | 2.0 | 3.0 | 0.09 | 0.24 | 0.17 | 89 | 1009.2 |
| 20260507131158 | 63 | 120 | 0.0 | 1.0 | 0.04 | 0.23 | 0.17 | 89 | 1011.5 |
| 20260507131023 | 63 | 0 | 0.0 | 2.0 | 0.10 | 0.24 | 0.17 | 89 | 1009.7 |
| 20260507130527 | 63 | 143 | 0.0 | 2.0 | 0.10 | 0.23 | 0.16 | 89 | 1010.0 |
| 20260507130151 | 63 | 143 | 0.0 | 1.0 | 0.08 | 0.23 | 0.16 | 89 | 1011.9 |
| 20260507130050 | 63 | 143 | 0.0 | 3.0 | 0.10 | 0.23 | 0.16 | 89 | 1010.0 |
| 20260507125527 | 63 | 141 | 0.0 | 3.0 | 0.10 | 0.23 | 0.16 | 89 | 1010.1 |
| 20260507125207 | 63 | 178 | 0.0 | 2.0 | 0.13 | 0.21 | 0.15 | 89 | 1012.4 |
| 20260507125022 | 63 | 0 | 0.0 | 3.0 | 0.09 | 0.22 | 0.15 | 89 | 1010.5 |
| 20260507124546 | 63 | 151 | 0.0 | 2.0 | 0.09 | 0.21 | 0.14 | 89 | 1010.6 |
| 20260507124021 | 63 | 0 | 0.0 | 3.0 | 0.08 | 0.20 | 0.13 | 89 | 1011.0 |
| 20260507123522 | 63 | 0 | 0.0 | 3.0 | 0.05 | 0.17 | 0.10 | 89 | 1010.9 |
| 20260507123056 | 63 | 210 | 0.0 | 3.0 | 0.04 | 0.16 | 0.09 | 89 | 1010.6 |
| 20260507123011 | 63 | 210 | 0.0 | 2.0 | 0.04 | 0.16 | 0.09 | 89 | 1012.6 |